12h02 EST


 

Suivi/Infos de l'aéroport


-ou-


 

Suivi des vols en temps réelBallard Aviation D/B/A Eaglemed #24 ✈ 27-06-2013 ✈ KGLD - 8V7

Thumbnail
EMD24
Ballard Aviation D/B/A Eaglemed "Eaglemed" (tous les vols)
Goodland Municipal ( – info)
Goodland, KS
Springfield Muni ( – info)
Springfield, CO
07h35 MDT
08h10 MDT
Prévu: 07h45 MDT
Prévu: 08h20 MDT
Durée: 35 minutes
jeudi, 27 juin 2013
Statut A atterri il y a plus d'un an. (journal de vol & graphique)
Avion Beechcraft King Air 90 (bi-turbopropulseur) (BE9L/G – photos)
Vitesse Plan de vol: 233 kts (graphique)
Altitude Plan de vol: 14.000 Pieds (graphique)
Distance En ligne droite 227 km    Prévue 228 km    Parcourue 227 km
Route 3727N 10237W (Décoder)
JOURNAL DE L'ACTIVITE
Vous voulez une recherche complète sur l'historique de EMD24 depuis 1998? Achetez maintenant. Recevez-le dans l'heure.
Date Avion Provenance Destination Départ Arrivée Durée
02-03-2015 BE9L/GHays Rgnl ()Goodland Municipal () 04h32 CST 04h07 MST 0:35
02-03-2015 BE9L/GHays Rgnl ()Centennial () 04h32 CST Dérouté
02-03-2015 BE9LR GLD 81 36Hays Rgnl () 09h06 UTC 03h31 CST 0:24
02-03-2015 BE9L/GCentennial ()Shalz Field () 00h13 MST 01h58 CST 0:45
02-03-2015 BE9L/GCentennial ()Goodland Municipal () 00h13 MST Dérouté
01-03-2015 BE9L/GWestern Neb Rgnl ()Centennial () 21h32 MST 22h24 MST 0:52
01-03-2015 BE9L/GGoodland Municipal ()Western Neb Rgnl () 19h37 MST 20h30 MST 0:53
01-03-2015 BE9L/GWestern Neb Rgnl ()Goodland Municipal () 17h44 MST 18h30 MST 0:46
01-03-2015 BE9L/GChadron Muni ()Western Neb Rgnl () 16h30 MST 16h48 MST 0:18
01-03-2015 BE9L/GGoodland Municipal ()Chadron Muni () 14h31 MST 15h37 MST 1:06
01-03-2015 BE9L/GGoodland Municipal ()Kit Carson County () 14h31 MST Dérouté
28-02-2015 BE9L/GHays Rgnl ()Goodland Municipal () 14h42 CST 14h22 MST 0:40
28-02-2015 BE9L/GShalz Field ()Hays Rgnl () 13h21 CST 13h43 CST 0:22
28-02-2015 BE9L/GGoodland Municipal ()Shalz Field () 10h51 MST 12h07 CST 0:16
28-02-2015 BE9L/GCentennial ()Goodland Municipal () 04h40 MST 05h24 MST 0:44
28-02-2015 BE9L/GLamar Muni ()Centennial () 02h16 MST 02h57 MST 0:41
28-02-2015 BE9L/GGoodland Municipal ()Lamar Muni () 00h27 MST 00h58 MST 0:31
27-02-2015 BE9L/GSalina Rgnl ()Goodland Municipal () 19h35 CST 19h36 MST 1:01
27-02-2015 BE9L/GCheyenne County Muni ()Salina Rgnl () 17h42 CST 18h33 CST 0:51
27-02-2015 BE9L/GGoodland Municipal ()Cheyenne County Muni () 14h48 MST 16h05 CST 0:17
27-02-2015 BE9L/GHays Rgnl ()Goodland Municipal () 13h08 CST 12h45 MST 0:37
27-02-2015 BE9L/GGoodland Municipal ()Hays Rgnl () 10h08 MST 11h46 CST 0:38
27-02-2015 BE9L/GCentennial ()Goodland Municipal () 01h20 MST 02h02 MST 0:42
26-02-2015 BE9L/GGoodland Municipal ()Centennial () 22h17 MST 23h10 MST 0:53
26-02-2015 BE9L/GCentennial ()Goodland Municipal () 16h49 MST 17h30 MST 0:41
26-02-2015 BE9L/GKit Carson County ()Centennial () 13h17 MST 14h01 MST 0:44
26-02-2015 BE9L/GGoodland Municipal ()Kit Carson County () 12h17 MST 12h27 MST 0:10
26-02-2015 BE9L/GHays Rgnl ()Goodland Municipal () 04h41 CST 04h21 MST 0:40
26-02-2015 BE9L/GGoodland Municipal ()Hays Rgnl () 02h01 MST 03h39 CST 0:38
25-02-2015 BE9L/GHays Rgnl ()Goodland Municipal () 19h16 CST 18h58 MST 0:42
25-02-2015 BE9L/GShalz Field ()Hays Rgnl () 17h52 CST 18h12 CST 0:19
25-02-2015 BE9L/GCentennial ()Goodland Municipal () 02h21 MST 03h01 MST 0:40
25-02-2015 BE9L/GOakley Muni ()Centennial () 00h41 CST 00h39 MST 0:58
23-02-2015 BE9L/GColorado Sprgs Muni ()Goodland Municipal () 23h45 MST 00h28 MST (+1) 0:43
23-02-2015 BE9L/GGoodland Municipal ()Colorado Sprgs Muni () 21h10 MST 22h03 MST 0:53
23-02-2015 BE9L/GHays Rgnl ()Goodland Municipal () 00h32 CST 00h15 MST 0:43
22-02-2015 BE9L/GOakley Muni ()Hays Rgnl () 22h55 CST 23h33 CST 0:38
22-02-2015 BE9L/GGoodland Municipal ()Oakley Muni () 20h31 MST 21h48 CST (?) 0:17
22-02-2015 BE9L/GHays Rgnl ()Goodland Municipal () 14h12 CST 13h52 MST 0:40
22-02-2015 BE9L/GGoodland Municipal ()Hays Rgnl () 11h38 MST 13h16 CST 0:38
22-02-2015 BE9L/GWichita ()Goodland Municipal () 08h50 CST 09h04 MST 1:14
21-02-2015 BE9L/GOakley Muni ()Wichita () 15h11 CST 16h05 CST 0:54
21-02-2015 BE9L/GOakley Muni ()Oakley Muni () 13h35 CST 13h57 CST 0:22
21-02-2015 BE9L/GOakley Muni ()Wichita () 13h35 CST Dérouté
21-02-2015 BE9L/GGreeley-Weld County ()Goodland Municipal () 10h53 MST 11h38 MST 0:45
21-02-2015 BE9L/GSterling Muni ()Greeley-Weld County () 09h17 MST 09h40 MST 0:23
21-02-2015 BE9L/GGoodland Municipal ()Sterling Muni () 07h26 MST 08h01 MST 0:35
20-02-2015 BE9L/GFt Collins Regional ()Goodland Municipal () 13h57 MST 14h43 MST 0:46
20-02-2015 BE9L/GShalz Field ()Ft Collins Regional () 12h48 CST 12h51 MST 1:03
19-02-2015 BE9L/GCentennial ()Goodland Municipal () 12h42 MST 13h52 MST 1:10
19-02-2015 BE9L/GKit Carson County ()Centennial () 09h43 MST 10h22 MST 0:39
17-02-2015 BE9L/GColorado Sprgs Muni ()Goodland Municipal () 11h14 MST 11h55 MST 0:41
17-02-2015 BE9L/GGoodland Municipal ()Colorado Sprgs Muni () 08h44 MST 09h35 MST 0:51
17-02-2015 BE9L/GCentennial ()Goodland Municipal () 06h32 MST 07h17 MST 0:45
17-02-2015 BE9L/GKit Carson County ()Centennial () 03h37 MST 04h18 MST 0:41
16-02-2015 BE9L/GCentennial ()Goodland Municipal () 23h06 MST 23h49 MST 0:43
16-02-2015 BE9L/GGoodland Municipal ()Centennial () 21h26 MST 22h14 MST 0:48
16-02-2015 BE9L/GCentennial ()Goodland Municipal () 19h54 MST 20h38 MST 0:44
16-02-2015 BE9L/GSearle Field ()Centennial () 18h41 MST 19h31 MST 0:50
16-02-2015 BE9L/GGoodland Municipal ()Searle Field () 17h13 MST 17h48 MST 0:35
16-02-2015 BE9L/GCasper/Natrona County Intl ()Goodland Municipal () 12h55 MST 14h16 MST 1:21
Les membres inscrits (l'inscription est gratuite et facile!) voient 4 months d'historique. S'inscrire